#timestamp,LO_Frequency,Hit,StdDev 
1693162815.3,286046998.5,N
1693162835.1,286047001.1,N
1693162855.9,286047000.9,N
1693162875.7,286047001.1,N
1693162895.5,286047001.1,N
1693162915.4,286046998.1,N
1693162935.2,286046999.5,N
1693162955.0,286046996.8,N
1693162956.0,286046996.8,N
1693162975.8,286046999.1,N
1693162995.6,286046999.2,N
1693163015.5,286046996.8,N
1693163035.3,286046997.1,N
1693163055.2,286046997.5,N
1693163075.9,286046995.4,N
1693163095.7,286046995.4,N
1693163115.6,286046997.4,N
1693163135.4,286046995.0,N
1693163155.2,286046996.8,N
1693163175.1,286046997.1,N
1693163176.0,286046997.1,N
1693163195.8,286046997.3,N
1693163215.7,286046997.1,N
1693163235.5,286046998.0,N
1693163255.3,286046995.5,N
1693163275.2,286046995.6,N
1693163295.0,286046995.4,N
1693163295.9,286046995.4,N
1693163315.8,286046997.6,N
1693163335.6,286046997.9,N
1693163355.4,286046996.1,N
1693163375.3,286046995.4,N
1693163395.1,286046995.2,N
1693163415.8,286046996.0,N
1693163435.7,286046995.3,Y
1693163455.5,286046998.3,P
1693163475.4,286047000.6,N
1693163495.2,286046999.9,N
1693163515.0,286046999.7,N
1693163515.9,286046999.7,N
1693163535.8,286046999.7,N
1693163555.6,286047002.4,N
1693163575.5,286046999.8,N
1693163595.3,286047002.4,N
1693163615.1,286047001.5,N
1693163635.9,286047002.5,N
1693163655.7,286047004.3,N
1693163675.5,286047001.6,N
1693163695.4,286047001.8,N
1693163715.2,286047001.8,N
1693163735.0,286047004.3,N
1693163736.0,286047004.3,N
1693163755.8,286047002.0,N
1693163775.6,286047001.3,N
1693163795.5,286047004.0,N
1693163815.3,286047004.0,N
1693163835.1,286047001.6,N
1693163855.9,286047001.3,N
1693163875.7,286047004.3,N
1693163895.6,286047003.7,N
1693163915.4,286047004.2,N
1693163935.2,286047003.9,N
1693163955.1,286047004.1,N
1693163956.0,286047004.1,N
1693163975.8,286047004.2,N
1693163995.6,286047004.3,N
1693164015.5,286047003.9,N
1693164035.3,286047005.6,Y
1693164055.2,286047002.1,P
1693164075.9,286047001.7,P
1693164095.7,286047001.3,P
1693164115.6,286047001.4,N
1693164135.4,286047001.9,Y
1693164155.2,286047000.5,P
1693164175.1,286047000.7,N
1693164176.0,286047000.7,N
1693164195.8,286047000.0,N
1693164215.7,286047000.3,N
1693164235.5,286047000.4,N
1693164255.3,286047002.8,Y
1693164275.2,286047000.3,P
1693164295.0,286047000.5,N
1693164295.9,286047000.5,P
1693164315.8,286047002.7,Y
1693164335.6,286047000.2,P
1693164355.4,286047000.0,N
1693164375.3,286047000.9,P
1693164395.1,286047000.3,N
1693164415.8,286047000.5,N
1693164435.7,286047000.3,N
1693164455.5,286047001.2,Y
1693164475.4,286046998.2,P
1693164495.2,286046998.5,N
1693164515.1,286047000.8,N
1693164516.0,286047000.8,N
1693164535.8,286047001.2,N
1693164555.6,286047000.4,N
1693164575.5,286047000.9,N
1693164595.3,286047000.9,N
1693164615.2,286047000.6,N
1693164635.9,286047000.4,N
1693164655.7,286047000.4,N
1693164675.6,286047000.5,N
1693164695.4,286047000.3,N
1693164715.2,286046999.8,N
1693164735.1,286047000.2,N
1693164736.0,286047000.2,N
1693164755.8,286047000.4,N
1693164775.7,286047002.4,Y
1693164795.5,286047000.3,P
1693164815.3,286047000.0,N
1693164835.2,286047000.5,P
1693164855.0,286047000.0,N
1693164855.9,286047000.0,N
1693164875.8,286047002.3,Y
1693164895.6,286047000.0,P
1693164915.4,286047000.3,P
1693164935.3,286047000.3,N
1693164955.1,286047000.0,N
1693164975.9,286047000.5,Y
1693164995.7,286047000.6,P
1693165015.5,286047000.6,N
1693165035.4,286047000.8,P
1693165055.2,286047000.6,N
1693165075.1,286047001.1,Y
1693165076.0,286047001.1,P
1693165095.8,286047000.7,N
1693165115.6,286047001.0,P
1693165135.5,286046998.5,Y
1693165155.3,286046998.9,P
1693165175.2,286046998.8,N
1693165195.9,286046999.6,N
1693165215.7,286046998.3,N
1693165235.6,286046998.5,N
1693165255.4,286047001.2,N
1693165275.2,286046998.8,N
1693165295.1,286046998.1,N
1693165296.0,286046998.1,N
1693165315.8,286047000.7,N
1693165335.7,286047000.0,N
1693165355.5,286047001.1,N
1693165375.3,286047000.8,N
1693165395.2,286046998.2,N
1693165415.0,286046998.2,N
1693165415.9,286046998.2,N
1693165435.8,286047000.5,N
1693165455.6,286047001.1,N
1693165475.4,286047001.1,N
1693165495.3,286047000.5,N
1693165515.1,286046998.5,N
1693165516.0,286046998.5,N
1693165535.8,286047000.8,N
1693165555.7,286047001.0,N
1693165575.5,286047000.6,N
1693165595.4,286046998.2,N
1693165615.2,286046999.3,N
1693165635.0,286046998.8,N
1693165635.9,286046998.8,N
1693165655.8,286047001.2,N
1693165675.6,286047000.9,N
1693165695.4,286047001.1,N
1693165715.3,286046998.1,N
1693165735.1,286047001.2,N
1693165755.9,286047000.7,N
1693165775.7,286046998.1,N
1693165795.5,286047000.7,N
1693165815.4,286047001.0,N
1693165835.2,286046998.2,N
1693165855.0,286046998.1,N
1693165855.9,286046998.1,N
1693165875.8,286047000.9,N
1693165895.6,286047001.2,N
1693165915.5,286047000.7,N
1693165935.3,286047000.4,N
1693165955.1,286047000.5,N
1693165975.9,286046998.1,N
1693165995.7,286047001.1,N
1693166015.6,286046998.3,N
1693166035.4,286046998.5,N
1693166055.2,286046998.9,N
1693166075.1,286046998.3,N
1693166076.0,286046998.3,N
1693166095.8,286046999.0,N
1693166115.6,286047000.8,N
1693166135.5,286046999.9,N
1693166155.3,286047000.2,N
1693166175.2,286047000.5,N
1693166195.9,286046999.8,N
1693166215.7,286047000.6,N
1693166235.6,286047000.6,N
1693166255.4,286047000.0,N
1693166275.3,286047000.1,N
1693166295.1,286047000.3,N
1693166315.9,286047002.5,N
1693166335.7,286047001.4,N
1693166355.5,286047002.0,N
1693166375.4,286047002.1,N
1693166395.2,286047001.4,N
